Dewpoint
72 69 69 67 54 49 46 49 51 51 52 54 54 53 55 57 55 53 61 62 65 67 70 72 76 75 75 76 76 76 76 76 76 75 75 74 75 75 75 74 75 75 75 74 74 75 75 74 74
68 69 70 64 48 44 48 49 50 51 53 55 55 55 54 56 57 58 59 63 67 68 69 71 76 76 76 76 76 75 75 75 75 75 75 75 74 74 75 75 74 74 75 75 74 74 74 74 74
70 70 64 52 45 42 46 49 52 53 54 54 55 56 56 57 57 57 61 64 67 68 69 72 75 76 75 76 75 75 75 75 75 75 74 73 73 72 72 73 73 74 74 74 74 74 73 72 72
69 67 61 47 45 47 48 51 53 53 54 54 56 56 59 58 58 59 61 63 67 68 69 74 75 75 76 76 75 75 75 75 75 75 74 75 74 73 72 72 72 72 73 73 73 72 71 70 71
67 62 49 47 47 49 51 52 53 52 53 54 55 56 58 61 61 60 61 63 66 68 69 71 75 76 76 76 75 75 76 76 75 75 75 75 75 74 73 72 71 71 71 71 72 71 70 71 74
61 58 45 45 48 50 52 52 52 52 54 54 55 58 59 63 59 59 60 63 64 66 69 70 74 75 76 75 75 76 75 75 75 75 75 75 75 74 74 73 73 72 72 72 71 70 70 71 74
58 52 46 46 48 50 51 53 50 51 53 54 55 54 60 60 59 59 61 62 64 66 68 69 70 74 75 75 76 76 75 75 75 75 75 75 75 75 75 74 74 73 72 72 71 70 70 71 72
62 54 47 47 46 50 52 54 52 50 54 57 57 54 58 60 61 60 61 63 64 66 67 69 70 71 76 72 76 76 76 75 74 74 74 74 74 74 74 76 75 73 72 70 69 69 70 71 71
63 49 47 47 46 51 53 52 54 54 54 55 56 57 60 62 63 61 61 64 64 65 67 68 68 73 75 71 73 74 75 74 74 73 71 72 69 69 70 73 73 72 73 74 73 73 72 72 72
58 47 46 50 52 51 52 51 52 52 54 55 55 58 61 62 63 62 62 62 63 64 65 67 68 67 69 67 71 70 69 69 71 72 72 69 70 69 68 72 69 70 71 73 73 74 76 75 64
58 49 53 51 52 52 52 52 51 51 51 54 56 59 60 61 61 60 60 61 63 63 64 66 67 70 67 68 67 65 65 67 69 74 73 72 69 71 69 69 69 69 73 67 70 70 67 69 67
54 56 51 53 52 52 52 54 50 52 52 54 57 59 60 60 60 59 61 63 64 64 63 66 69 70 69 67 66 65 65 67 67 70 73 72 68 71 70 69 69 69 68 70 69 67 70 69 69
52 51 51 53 53 53 54 53 53 55 55 55 57 59 60 59 60 60 62 64 66 65 65 67 71 71 70 70 69 70 67 67 68 69 72 69 69 72 69 70 68 69 68 68 69 69 70 70 68
53 51 52 54 54 54 54 54 54 56 55 55 57 58 58 58 59 61 61 63 66 66 66 69 68 70 70 70 72 72 71 69 68 70 70 72 70 73 69 69 68 68 69 68 69 71 69 68 66
55 50 53 54 55 54 53 52 54 56 56 55 56 58 58 59 59 60 61 61 64 66 66 69 67 68 70 71 71 72 70 65 67 68 72 72 72 73 74 68 67 67 69 70 70 70 68 67 65
52 53 51 53 53 54 53 52 55 56 55 55 55 58 59 60 59 60 61 62 63 65 67 67 64 65 68 70 70 69 70 70 67 66 68 71 72 72 71 67 66 70 67 67 67 67 67 67 66
50 47 49 52 52 53 51 53 55 55 55 56 56 57 58 59 60 62 61 61 62 64 67 68 67 65 67 71 69 70 72 70 68 65 64 70 71 70 72 66 67 71 65 66 67 67 69 67 67
44 44 47 49 51 52 51 52 54 54 52 54 55 57 57 58 59 61 62 62 62 64 66 68 67 68 69 68 70 68 69 69 69 68 66 69 68 71 71 67 69 70 65 65 69 72 69 67 67
45 43 42 48 53 52 51 53 54 54 50 51 53 56 56 57 59 60 62 63 63 64 65 67 68 70 69 68 67 66 65 67 67 68 71 72 72 72 73 67 66 68 67 70 72 69 69 66 67
38 43 40 44 52 52 52 52 54 54 53 51 51 54 54 56 58 60 62 63 63 65 67 67 68 70 70 67 67 67 69 67 68 69 72 72 72 72 72 73 69 69 67 69 71 73 69 65 66
30 34 36 41 51 51 50 50 53 54 54 55 51 52 53 54 56 59 62 63 63 65 67 68 70 70 71 70 68 70 71 71 68 67 67 68 71 72 73 73 73 73 72 65 68 70 72 66 66
32 23 33 44 46 41 47 40 50 52 53 54 54 52 51 53 55 57 59 61 63 63 65 69 71 72 71 72 71 74 71 67 67 67 67 69 70 71 71 72 73 74 70 71 70 68 70 71 64
19 20 37 42 40 33 38 33 43 47 51 53 54 57 54 53 54 55 56 59 61 62 63 66 71 73 73 73 74 73 72 68 68 67 70 72 73 72 70 70 72 73 71 72 73 73 73 69 67
15 16 18 20 25 24 26 26 36 43 49 52 54 56 58 56 56 56 58 59 61 63 63 65 70 73 73 73 73 74 74 75 73 70 72 67 67 67 70 71 73 73 73 72 72 73 75 74 71
16 22 25 23 21 21 29 18 40 52 58 57 57 56 56 58 58 60 61 60 64 64 66 66 68 71 72 71 71 72 73 74 72 73 74 70 68 67 71 72 74 72 74 74 73 75 74 74 72
19 24 24 27 21 18 36 22 42 55 58 60 60 60 57 57 58 59 60 63 64 66 68 69 70 71 70 70 73 74 73 71 72 75 77 77 77 77 76 73 74 74 74 74 74 71 71 74 71
18 16 18 18 18 17 17 43 45 52 56 58 57 58 57 58 61 62 64 65 67 67 67 68 68 68 68 68 71 70 69 67 65 69 70 65 67 62 67 71 74 74 74 74 75 72 72 73 72
17 16 12 13 19 17 17 32 34 48 54 58 58 60 61 62 64 64 64 63 61 59 60 60 61 65 66 62 62 63 62 63 67 67 64 64 63 63 64 64 65 69 73 75 75 74 74 73 71
14 13 14 8 13 13 16 27 43 46 53 57 59 61 62 60 60 61 61 59 59 57 59 56 56 57 58 60 61 63 62 63 62 62 62 62 63 64 64 64 64 64 66 72 74 75 74 75 75
20 18 15 11 22 16 21 25 41 49 55 56 56 56 56 55 55 56 56 57 58 56 56 56 54 53 55 58 59 57 57 60 59 60 60 61 62 63 63 63 63 63 63 65 70 73 74 74 74
Lifted_Index
-4 -4 -4 -4 -3 -1 -1 -1 -1 -0 0 0 -0 -1 -1 -1 -1 -0 0 0 -1 -2 -3 -4 -4 -5 -5 -5 -5 -5 -5 -5 -5 -5 -4 -4 -4 -4 -4 -4 -4 -4 -4 -4 -4 -4 -4 -4 -4
-4 -4 -4 -3 -2 -1 -1 -1 -1 -0 -0 -0 -0 -1 -1 -1 -0 0 0 -0 -1 -2 -3 -4 -4 -5 -5 -5 -5 -5 -5 -5 -5 -4 -4 -4 -3 -3 -4 -4 -4 -4 -4 -4 -4 -4 -4 -3 -3
-5 -5 -4 -2 -1 -1 -0 -0 -1 -1 -1 -1 -1 -1 -0 0 1 1 0 -0 -2 -3 -3 -4 -4 -5 -5 -5 -5 -5 -5 -5 -5 -4 -4 -4 -3 -3 -3 -3 -3 -3 -4 -4 -4 -3 -3 -3 -2
-5 -5 -4 -2 -1 -0 -0 -0 -1 -1 -1 -1 -1 -0 0 1 1 1 0 -1 -2 -3 -3 -4 -4 -5 -5 -5 -5 -5 -5 -5 -5 -4 -4 -4 -4 -3 -3 -2 -2 -3 -3 -3 -3 -3 -2 -2 -2
-5 -4 -3 -1 -1 -0 -0 -0 -0 -0 -1 -1 -1 -0 -0 0 1 1 1 -1 -2 -3 -3 -4 -4 -5 -6 -6 -5 -5 -5 -5 -5 -5 -5 -5 -5 -4 -3 -3 -2 -2 -3 -3 -3 -2 -2 -2 -3
-4 -3 -2 -1 -1 -0 -0 -0 -0 -0 -1 -1 -1 -1 -1 -0 1 1 0 -1 -2 -3 -3 -4 -4 -5 -6 -6 -6 -6 -6 -5 -5 -5 -5 -5 -5 -5 -5 -4 -4 -3 -3 -3 -3 -2 -2 -2 -3
-3 -2 -1 -1 -1 -0 -0 0 0 0 -0 -1 -1 -1 -1 -1 -0 0 0 -1 -2 -3 -3 -4 -4 -5 -6 -6 -6 -6 -6 -5 -5 -5 -5 -6 -6 -6 -5 -5 -5 -4 -4 -3 -3 -3 -2 -3 -3
-3 -2 -1 -1 -0 -0 0 0 0 0 0 -0 -0 -0 -1 -1 -1 -0 -0 -1 -2 -3 -3 -4 -4 -5 -5 -6 -6 -6 -5 -5 -5 -5 -5 -5 -6 -6 -6 -6 -5 -5 -5 -4 -4 -3 -3 -3 -3
-2 -1 -0 -0 -0 -0 -0 0 0 1 0 -0 -0 -0 -1 -1 -1 -1 -1 -2 -2 -2 -3 -4 -4 -4 -5 -5 -5 -5 -5 -5 -5 -5 -4 -5 -5 -5 -5 -5 -5 -5 -5 -5 -5 -5 -5 -4 -4
-2 -1 -0 -0 -1 -0 -0 0 1 1 0 -0 -0 -0 -1 -1 -1 -1 -2 -2 -2 -2 -3 -3 -4 -4 -4 -4 -4 -4 -4 -4 -4 -5 -5 -5 -5 -5 -5 -5 -5 -5 -5 -5 -5 -5 -6 -5 -5
-2 -1 -0 -0 -0 -0 -0 0 1 1 1 0 0 -0 -1 -1 -1 -1 -1 -2 -2 -2 -2 -3 -4 -4 -4 -3 -3 -3 -3 -3 -4 -5 -5 -5 -5 -5 -5 -5 -5 -5 -5 -5 -5 -6 -6 -6 -6
-2 -1 -1 -0 -0 -0 -0 -0 0 0 1 1 0 -0 -0 -0 -0 -1 -1 -2 -2 -2 -2 -3 -3 -4 -3 -3 -2 -2 -2 -3 -4 -4 -5 -5 -5 -5 -6 -5 -5 -5 -5 -5 -6 -6 -6 -6 -6
-1 -1 -0 -0 0 0 -0 0 0 0 0 1 0 0 -0 -0 -0 -0 -1 -2 -2 -2 -2 -3 -3 -3 -3 -3 -3 -3 -3 -3 -4 -4 -5 -5 -5 -5 -5 -5 -5 -5 -5 -5 -6 -6 -7 -7 -7
-1 -1 -0 -0 0 0 0 0 0 0 0 1 0 -0 -0 0 -0 -0 -1 -1 -2 -2 -2 -2 -2 -2 -2 -2 -3 -3 -3 -3 -3 -4 -4 -5 -5 -6 -5 -5 -5 -5 -5 -5 -6 -7 -7 -7 -6
-2 -1 -1 -1 -0 0 0 0 0 0 0 1 0 -0 -0 -0 0 -0 -0 -1 -1 -1 -2 -1 -1 -1 -2 -2 -3 -3 -3 -3 -3 -3 -4 -5 -5 -5 -5 -5 -5 -5 -5 -5 -6 -6 -6 -6 -6
-2 -2 -2 -1 -0 0 0 -0 0 0 0 0 0 -0 -0 -0 -0 -0 -0 -0 -0 -1 -1 -1 -1 -1 -1 -2 -2 -3 -3 -3 -2 -2 -3 -4 -5 -5 -5 -4 -4 -5 -5 -5 -5 -6 -6 -6 -6
-2 -2 -2 -2 -1 -1 -0 -0 -0 0 1 0 0 -0 -0 -1 -1 -1 -1 -1 -0 -1 -1 -1 -1 -1 -1 -2 -2 -3 -3 -3 -3 -2 -2 -3 -4 -4 -4 -4 -4 -4 -4 -4 -5 -6 -6 -6 -6
-1 -1 -2 -2 -2 -1 -1 -1 -0 0 1 1 0 -0 -0 -1 -1 -1 -1 -1 -1 -1 -1 -1 -1 -1 -1 -2 -2 -2 -3 -3 -3 -3 -3 -3 -4 -4 -4 -3 -3 -4 -4 -4 -5 -5 -5 -6 -6
-1 -1 -1 -2 -2 -2 -2 -2 -1 -0 1 1 0 -0 -0 -1 -1 -1 -1 -2 -1 -1 -1 -1 -1 -1 -2 -2 -2 -2 -2 -3 -3 -3 -3 -4 -4 -4 -4 -3 -3 -3 -3 -4 -5 -5 -5 -5 -5
-0 -1 -1 -2 -3 -3 -3 -3 -2 -1 -0 0 1 0 -0 -0 -1 -1 -1 -2 -2 -2 -2 -2 -2 -2 -2 -2 -2 -2 -3 -3 -3 -3 -3 -4 -4 -4 -4 -4 -4 -3 -3 -3 -4 -5 -4 -4 -4
-0 -0 -1 -2 -3 -3 -3 -3 -3 -2 -2 -1 -0 0 0 -0 -0 -1 -1 -2 -2 -2 -2 -2 -2 -2 -2 -2 -2 -3 -3 -3 -3 -3 -3 -3 -4 -4 -4 -4 -4 -4 -4 -3 -3 -4 -4 -4 -4
0 0 -0 -2 -3 -3 -2 -2 -3 -3 -3 -2 -1 -0 0 0 0 -0 -1 -1 -2 -2 -2 -3 -3 -3 -3 -3 -3 -3 -4 -3 -3 -3 -3 -4 -4 -4 -4 -4 -5 -5 -4 -4 -4 -4 -4 -4 -3
2 1 0 -1 -2 -1 -1 -1 -2 -3 -3 -3 -2 -1 -1 -0 0 -0 -0 -1 -1 -2 -2 -3 -4 -4 -4 -4 -4 -4 -4 -4 -4 -4 -4 -4 -4 -4 -4 -4 -5 -5 -5 -4 -4 -4 -4 -4 -4
3 2 1 0 -0 -0 0 -0 -1 -2 -3 -3 -3 -3 -2 -1 -1 -1 -1 -1 -1 -2 -2 -3 -4 -4 -4 -4 -4 -4 -4 -4 -4 -4 -4 -4 -4 -4 -4 -4 -5 -5 -5 -5 -5 -5 -5 -5 -5
3 2 1 0 -0 -0 1 1 -1 -2 -3 -4 -4 -4 -3 -2 -2 -2 -2 -2 -2 -2 -2 -3 -3 -4 -4 -4 -4 -4 -4 -4 -5 -5 -5 -4 -4 -5 -5 -5 -5 -6 -6 -5 -5 -5 -5 -5 -5
3 1 0 -0 -0 0 1 1 0 -1 -3 -4 -4 -4 -4 -3 -3 -3 -3 -3 -3 -3 -3 -3 -3 -3 -3 -3 -4 -4 -4 -4 -4 -4 -4 -4 -4 -4 -4 -5 -6 -6 -6 -6 -6 -5 -5 -5 -5
3 2 1 0 0 0 1 1 1 -1 -2 -3 -4 -4 -4 -4 -4 -4 -3 -3 -3 -2 -2 -2 -3 -2 -1 -1 -2 -2 -2 -1 -1 -2 -2 -2 -1 -1 -2 -3 -5 -6 -6 -6 -6 -6 -5 -5 -5
3 2 1 1 0 -0 0 1 1 0 -1 -2 -3 -3 -4 -4 -4 -4 -3 -3 -2 -2 -1 -1 -0 0 1 1 1 0 0 1 1 0 0 1 1 1 0 -1 -2 -3 -5 -6 -6 -6 -6 -5 -5
3 2 2 1 0 0 0 1 1 1 -1 -2 -2 -3 -3 -3 -3 -3 -2 -2 -2 -1 -0 2 3 3 3 3 3 2 1 1 1 1 2 2 2 1 1 1 0 -1 -2 -4 -5 -6 -6 -6 -6
2 2 1 1 0 1 1 1 1 1 -1 -2 -2 -2 -3 -3 -3 -2 -2 -2 -2 -1 1 3 4 5 5 5 4 3 2 2 2 2 2 2 2 1 1 1 1 0 -0 -2 -4 -5 -6 -6 -6